Hereford, TX

6:12 AM CDT on May 24, 2017 (GMT -0500)
Hereford Municipal

Weather History for KHRX - February, 2013

Change the Weather History Date:

Wednesday, February 13, 2013

  Actual Average (KCVN) Record (KCVN)
Temperature  
Mean Temperature 34 °F -  
Max Temperature 50 °F 57 °F 83 °F (1962)
Min Temperature 17 °F 28 °F 5 °F (1948)
Degree Days  
Heating Degree Days 32    
Moisture  
Dew Point 27 °F    
Average Humidity 68    
Maximum Humidity 93    
Minimum Humidity 37    
Precipitation  
Precipitation 0.00 in - - ()
Sea Level Pressure  
Sea Level Pressure 30.01 in    
Wind  
Wind Speed - (North)    
Max Wind Speed -    
Max Gust Speed -    
Visibility 9 miles    
Events Fog    
Averages and records for this station are not official NWS values.
T = Trace of Precipitation, MM = Missing Value Source: NWS Daily Summary

Daily Weather History Graph

Daily Weather History Graph

Search for Another Location

Airport or City:

Trip Planner

Search our weather history database for the weather conditions in past years. The results will help you decide how hot, cold, wet, or windy it might be!

Date:

Astronomy

Feb. 13, 2013 Rise Set
Actual Time 7:36 AM CST 6:30 PM CST
Civil Twilight 7:10 AM CST 6:56 PM CST
Nautical Twilight 6:41 AM CST 7:26 PM CST
Astronomical Twilight 6:11 AM CST 7:55 PM CST
Moon 9:18 AM CST (2/13) 10:23 PM CST (2/13)
Length of Visible Light 11h 45m
Length of Day
10h 53m
Waxing Crescent, 14% of the Moon is Illuminated
Feb 13
Waxing Crescent
Feb 17
First Quarter
Feb 25
Full
Mar 4
Last Quarter
Mar 11
New

Hourly Weather History & Observations

Time (CST) Temp. Dew Point Humidity Pressure Visibility Wind Dir Wind Speed Gust Speed Precip Events Conditions
12:15 AM 19.4 °F 17.6 °F 93% 30.08 in 0.2 mi North - - N/A Fog Light Freezing Fog
12:35 AM 17.6 °F 14.0 °F 86% 30.08 in 0.2 mi North - - N/A Fog Light Freezing Fog
12:55 AM - - N/A% 30.08 in 0.5 mi North - - N/A Fog Fog
1:15 AM - - N/A% 30.08 in 0.2 mi North - - N/A Fog Fog
1:35 AM - - N/A% 30.08 in 4.0 mi North - - N/A   Haze
1:55 AM - - N/A% 30.07 in 7.0 mi North - - N/A   Clear
2:15 AM - - N/A% 30.08 in 7.0 mi North - - N/A   Clear
2:35 AM - - N/A% 30.08 in 10.0 mi North - - N/A   Clear
2:55 AM - - N/A% 30.07 in 10.0 mi North - - N/A   Clear
3:15 AM - - N/A% 30.07 in 10.0 mi North - - N/A   Clear
3:35 AM - - N/A% 30.06 in 10.0 mi North - - N/A   Clear
3:55 AM - - N/A% 30.05 in 10.0 mi North - - N/A   Clear
4:15 AM - - N/A% 30.05 in 10.0 mi North - - N/A   Clear
4:35 AM - - N/A% 30.04 in 10.0 mi North - - N/A   Clear
4:55 AM - - N/A% 30.04 in 10.0 mi North - - N/A   Clear
5:15 AM - - N/A% 30.03 in 10.0 mi North - - N/A   Clear
5:35 AM - - N/A% 30.04 in 10.0 mi North - - N/A   Clear
5:55 AM - - N/A% 30.04 in 10.0 mi North - - N/A   Clear
6:15 AM - - N/A% 30.04 in 10.0 mi North - - N/A   Clear
6:35 AM - - N/A% 30.04 in 10.0 mi North - - N/A   Clear
6:55 AM - - N/A% 30.04 in 10.0 mi North - - N/A   Clear
7:15 AM - - N/A% 30.04 in 10.0 mi North - - N/A   Clear
7:35 AM - - N/A% 30.04 in 10.0 mi North - - N/A   Clear
7:55 AM - - N/A% 30.05 in 10.0 mi North - - N/A   Clear
8:15 AM - - N/A% 30.05 in 10.0 mi North - - N/A   Clear
8:35 AM - - N/A% 30.06 in 10.0 mi North - - N/A   Clear
8:55 AM - - N/A% 30.07 in 10.0 mi North - - N/A   Clear
9:15 AM 23.0 °F 21.2 °F 93% 30.06 in 10.0 mi North - - N/A   Clear
9:35 AM 26.6 °F 23.0 °F 86% 30.06 in 10.0 mi North - - N/A   Clear
9:55 AM 28.4 °F 23.0 °F 80% 30.06 in 10.0 mi North - - N/A   Clear
10:15 AM 30.2 °F 24.8 °F 80% 30.06 in 10.0 mi North - - N/A   Clear
10:35 AM 32.0 °F 24.8 °F 75% 30.06 in 10.0 mi North - - N/A   Clear
10:55 AM 33.8 °F 26.6 °F 75% 30.05 in 10.0 mi North - - N/A   Clear
11:15 AM 35.6 °F 26.6 °F 70% 30.05 in 10.0 mi North - - N/A   Clear
11:35 AM 37.4 °F 26.6 °F 65% 30.05 in 10.0 mi North - - N/A   Clear
11:55 AM 37.4 °F 28.4 °F 70% 30.04 in 10.0 mi North - - N/A   Clear
12:15 PM 41.0 °F 26.6 °F 57% 30.03 in 10.0 mi North - - N/A   Clear
12:35 PM 41.0 °F 28.4 °F 61% 30.02 in 10.0 mi North - - N/A   Clear
12:55 PM 42.8 °F 26.6 °F 53% 30.02 in 10.0 mi North - - N/A   Clear
1:15 PM 44.6 °F 28.4 °F 53% 30.01 in 10.0 mi North - - N/A   Clear
1:35 PM 44.6 °F 28.4 °F 53% 30.00 in 10.0 mi North - - N/A   Clear
1:55 PM 44.6 °F 30.2 °F 57% 29.99 in 10.0 mi North - - N/A   Clear
2:15 PM 46.4 °F 30.2 °F 53% 29.98 in 10.0 mi North - - N/A   Clear
2:35 PM 46.4 °F 26.6 °F 46% 29.97 in 10.0 mi North - - N/A   Clear
2:55 PM 46.4 °F 23.0 °F 40% 29.96 in 10.0 mi North - - N/A   Clear
3:15 PM 48.2 °F 23.0 °F 37% 29.96 in 10.0 mi North - - N/A   Clear
3:55 PM 48.2 °F 26.6 °F 43% 29.95 in 10.0 mi North - - N/A   Clear
4:15 PM 50.0 °F 26.6 °F 40% 29.94 in 10.0 mi North - - N/A   Clear
4:35 PM 50.0 °F 24.8 °F 37% 29.94 in 10.0 mi North - - N/A   Clear
4:55 PM 50.0 °F 26.6 °F 40% 29.94 in 10.0 mi North - - N/A   Clear
5:15 PM 50.0 °F 28.4 °F 43% 29.94 in 10.0 mi North - - N/A   Clear
5:35 PM 48.2 °F 28.4 °F 46% 29.94 in 10.0 mi North - - N/A   Clear
5:55 PM 46.4 °F 30.2 °F 53% 29.93 in 10.0 mi North - - N/A   Clear
6:15 PM 44.6 °F 30.2 °F 57% 29.93 in 10.0 mi North - - N/A   Clear
6:35 PM 39.2 °F 30.2 °F 70% 29.93 in 10.0 mi North - - N/A   Clear
6:55 PM 35.6 °F 30.2 °F 81% 29.94 in 10.0 mi North - - N/A   Clear
7:15 PM 35.6 °F 28.4 °F 75% 29.94 in 10.0 mi North - - N/A   Clear
7:35 PM 33.8 °F 28.4 °F 81% 29.95 in 10.0 mi North - - N/A   Clear
7:55 PM 32.0 °F 28.4 °F 87% 29.96 in 10.0 mi North - - N/A   Clear
8:15 PM 32.0 °F 28.4 °F 87% 29.97 in 10.0 mi North - - N/A   Clear
8:35 PM 32.0 °F 28.4 °F 87% 29.97 in 10.0 mi North - - N/A   Clear
8:55 PM 32.0 °F 28.4 °F 87% 29.98 in 10.0 mi North - - N/A   Clear
9:15 PM 32.0 °F 26.6 °F 80% 29.98 in 10.0 mi North - - N/A   Clear
9:35 PM 32.0 °F 26.6 °F 80% 29.98 in 10.0 mi North - - N/A   Clear
9:55 PM 32.0 °F 26.6 °F 80% 29.98 in 10.0 mi North - - N/A   Clear
10:15 PM 32.0 °F 26.6 °F 80% 29.99 in 10.0 mi North - - N/A   Clear
10:35 PM 32.0 °F 26.6 °F 80% 29.99 in 10.0 mi North - - N/A   Clear
10:55 PM 32.0 °F 26.6 °F 80% 29.99 in 10.0 mi North - - N/A   Clear
11:15 PM 32.0 °F 26.6 °F 80% 30.00 in 10.0 mi North - - N/A   Clear
11:35 PM 30.2 °F 26.6 °F 86% 29.99 in 10.0 mi North - - N/A   Clear
11:55 PM 30.2 °F 26.6 °F 86% 29.99 in 10.0 mi North - - N/A   Clear